Stations météo

Publicité
Luxeuil, France (7292): Température de l'air & dewpoint: 14.07.2018 01:00:00 - 20.07.2018 01:00:00 (CEST)Luxeuil, France (7292): Température de l'air 5cm: 14.07.2018 01:00:00 - 20.07.2018 01:00:00 (CEST)Luxeuil, France (7292): Température de l'air -20cm & Température de l'air -100cm: 14.07.2018 01:00:00 - 20.07.2018 01:00:00 (CEST)Luxeuil, France (7292): Vitesse du vent & gusts: 14.07.2018 01:00:00 - 20.07.2018 01:00:00 (CEST)Luxeuil, France (7292): Direction du vent: 14.07.2018 01:00:00 - 20.07.2018 01:00:00 (CEST)Luxeuil, France (7292): reduced air pressure: 14.07.2018 01:00:00 - 20.07.2018 01:00:00 (CEST)Luxeuil, France (7292): visibility: 14.07.2018 01:00:00 - 20.07.2018 01:00:00 (CEST)Luxeuil, France (7292): Ensoleillement: 14.07.2018 01:00:00 - 20.07.2018 01:00:00 (CEST)Luxeuil, France (7292): Quantités de précipitations: 14.07.2018 01:00:00 - 20.07.2018 01:00:00 (CEST)
Date & Time tt [°C] td [°C] tt 5cm [°C] tt -20cm [°C] tt -100cm [°C] ff [km/h] ff [knt] fx [km/h] fx [knt] dd ppp [hPa] vv [km] sd [min] rr [mm]
20.07.2018 01:00:00 16,8 12,7 - - - 2 1 5 3 NNW 1015,1 40 0 -
20.07.2018 00:00:00 18,2 13,3 13,8 26,0 19,9 4 2 6 3 WSW 1014,8 58 0 0,0
19.07.2018 23:00:00 21,6 12,7 16,4 26,0 20,0 2 1 6 4 W 1014,2 59 0 0,0
19.07.2018 22:00:00 24,8 11,7 19,5 25,9 19,9 5 3 14 7 NNW 1014,0 60 0 0,0
19.07.2018 21:00:00 27,5 11,5 26,4 25,8 19,9 10 5 20 11 NNE 1013,3 60 54 0,0
19.07.2018 20:00:00 29,1 11,6 31,6 25,6 19,9 11 6 21 11 N 1012,8 58 60 0,0
19.07.2018 19:00:00 30,8 11,7 35,1 25,4 19,9 10 6 22 12 NNW 1012,6 56 60 0,0
19.07.2018 18:00:00 31,0 11,9 34,2 25,1 19,9 6 3 23 12 N 1012,7 44 50 0,0
19.07.2018 17:00:00 29,7 11,7 33,1 24,8 19,8 12 7 27 15 NNE 1013,3 60 24 0,0
19.07.2018 16:00:00 30,8 12,7 35,0 24,6 19,8 9 5 22 12 N 1013,6 60 26 0,0
19.07.2018 15:00:00 30,3 12,7 34,7 24,3 19,9 5 3 19 10 N 1013,9 19 23 0,0
19.07.2018 14:00:00 29,1 12,1 36,1 24,0 19,8 9 5 22 12 NW 1014,5 36 48 0,0
19.07.2018 13:00:00 29,0 13,2 40,4 24,0 19,8 5 3 17 9 W 1014,8 19 60 0,0
19.07.2018 12:00:00 27,4 13,7 35,5 24,0 19,8 4 2 13 7 ESE 1015,1 19 58 0,0
19.07.2018 11:00:00 25,4 14,8 27,9 24,0 19,8 6 4 13 7 S 1015,7 60 21 0,0
19.07.2018 10:00:00 24,1 14,2 29,4 24,2 19,8 4 2 11 6 N 1016,0 59 60 0,0
19.07.2018 09:00:00 21,2 14,6 20,7 24,3 19,8 4 2 10 6 E 1016,3 40 11 0,0
19.07.2018 08:00:00 19,2 14,7 18,3 24,4 19,8 2 1 6 4 NNE 1016,3 40 4 0,0
19.07.2018 07:00:00 17,6 15,6 15,7 24,7 19,8 3 2 4 2 W 1016,5 20 0 0,0
19.07.2018 06:00:00 18,0 15,1 16,5 24,8 19,8 3 2 5 3 NE 1016,1 31 0 0,0
19.07.2018 05:00:00 17,9 15,0 16,4 25,0 19,8 2 1 11 6 N 1016,2 40 0 0,0
19.07.2018 04:00:00 17,2 14,8 14,6 25,1 19,8 4 2 7 4 SSE 1016,2 31 0 0,0
19.07.2018 03:00:00 17,7 14,4 15,2 25,3 19,8 4 2 6 3 WNW 1016,1 34 0 0,0
19.07.2018 02:00:00 18,2 14,5 16,0 25,5 19,8 2 1 5 3 NNE 1016,1 44 0 0,0
19.07.2018 01:00:00 17,7 14,4 14,7 25,6 19,8 4 2 8 4 SW 1015,9 49 0 0,0
19.07.2018 00:00:00 18,8 14,3 14,9 25,7 19,8 4 2 9 5 W 1015,5 57 0 0,0
18.07.2018 23:00:00 20,7 13,4 17,1 25,6 19,8 4 2 16 8 S 1014,8 60 0 0,0
18.07.2018 22:00:00 24,9 13,4 22,8 25,6 19,8 9 5 15 8 NNE 1014,2 60 0 0,0
18.07.2018 21:00:00 27,0 13,4 25,6 25,4 19,8 10 5 17 9 NNE 1013,8 60 60 0,0
18.07.2018 20:00:00 29,3 10,9 32,1 25,1 19,8 9 5 19 10 NNW 1013,3 47 60 0,0
18.07.2018 19:00:00 29,7 10,3 34,6 24,9 19,8 9 5 21 11 N 1013,4 54 60 0,0
18.07.2018 18:00:00 30,1 11,1 38,7 24,6 19,8 7 4 20 11 NNW 1013,6 45 60 0,0
18.07.2018 17:00:00 29,9 10,9 32,4 24,2 19,8 9 5 21 12 NNW 1014,2 18 44 0,0
18.07.2018 16:00:00 28,5 11,5 33,7 23,9 19,7 8 4 24 13 W 1014,7 59 28 0,0
18.07.2018 15:00:00 28,1 12,0 33,9 23,6 19,7 12 6 34 18 WNW 1015,0 60 51 0,0
18.07.2018 14:00:00 28,8 13,5 30,4 23,4 19,7 12 6 21 11 NW 1015,5 56 50 0,0
18.07.2018 13:00:00 26,2 13,3 30,2 23,4 19,8 9 5 26 14 W 1016,2 60 30 0,0
18.07.2018 12:00:00 26,1 13,9 37,1 23,3 19,7 5 3 18 10 WNW 1016,4 20 60 0,0
18.07.2018 11:00:00 25,2 14,3 33,7 23,4 19,7 5 3 16 8 W 1016,8 54 60 0,0
18.07.2018 10:00:00 23,3 15,1 29,2 23,5 19,7 3 1 10 5 N 1017,3 48 60 0,0
18.07.2018 09:00:00 20,2 13,9 23,0 23,8 19,7 4 2 9 5 ESE 1017,6 38 60 0,0
18.07.2018 08:00:00 17,2 13,7 12,6 23,9 19,8 0 0 5 3 N 1017,9 20 60 0,0
18.07.2018 07:00:00 13,3 12,2 10,7 24,2 19,8 0 0 8 4 N 1018,2 20 28 0,0
18.07.2018 06:00:00 12,8 11,7 10,4 24,4 19,7 4 2 6 4 ESE 1018,3 15 0 0,0
18.07.2018 05:00:00 13,4 12,1 10,1 24,6 19,7 3 2 7 4 NE 1018,1 20 0 0,0
18.07.2018 04:00:00 13,8 12,7 11,8 24,8 19,7 6 3 9 5 ESE 1018,1 18 0 0,0
18.07.2018 03:00:00 14,5 13,2 11,7 25,0 19,7 0 0 4 2 N 1018,3 22 0 0,0
18.07.2018 02:00:00 15,5 13,7 12,2 25,2 19,7 3 1 4 2 NE 1018,2 35 0 0,0
18.07.2018 01:00:00 15,9 13,7 13,1 25,3 19,7 0 0 5 3 N 1018,0 28 0 0,0
18.07.2018 00:00:00 16,5 14,1 13,9 25,4 19,7 3 2 6 3 SE 1017,9 20 0 0,0
17.07.2018 23:00:00 18,3 15,0 16,3 25,5 19,7 4 2 9 5 E 1017,4 49 0 0,0
17.07.2018 22:00:00 20,4 14,1 16,7 25,4 19,7 4 2 6 3 NE 1016,9 55 0 0,0
17.07.2018 21:00:00 21,7 14,3 21,1 25,3 19,7 4 2 16 9 ENE 1016,2 60 13 0,0
17.07.2018 20:00:00 23,7 14,9 25,3 25,2 19,7 9 5 34 18 N 1015,9 58 17 0,0
17.07.2018 19:00:00 26,5 11,4 28,1 24,9 19,7 24 13 35 19 SW 1015,1 60 30 0,0
17.07.2018 18:00:00 28,5 12,0 32,8 24,6 19,7 11 6 25 13 WSW 1014,7 48 46 0,0
17.07.2018 17:00:00 28,0 12,8 29,3 24,3 19,7 9 5 27 15 N 1015,1 28 24 0,0
17.07.2018 16:00:00 26,6 11,9 30,2 24,0 19,7 21 11 34 19 N 1015,3 20 39 0,0
17.07.2018 15:00:00 28,2 11,7 40,0 23,8 19,7 11 6 26 14 W 1015,1 38 60 0,0
17.07.2018 14:00:00 27,1 12,7 35,2 23,6 19,6 8 5 31 17 W 1016,0 60 60 0,0
17.07.2018 13:00:00 25,6 13,8 30,6 23,5 19,7 13 7 29 16 W 1016,3 60 40 0,0
17.07.2018 12:00:00 25,2 13,4 32,2 23,5 19,6 10 5 20 11 W 1016,3 53 51 0,0
17.07.2018 11:00:00 24,2 14,9 25,8 23,6 19,6 6 4 15 8 NNW 1016,2 20 29 0,0
17.07.2018 10:00:00 21,2 13,9 26,1 23,8 19,7 3 2 10 5 ENE 1016,3 53 26 0,0
17.07.2018 09:00:00 20,2 14,6 20,1 24,0 19,6 4 2 11 6 SSW 1016,3 40 46 0,0
17.07.2018 08:00:00 17,8 14,5 14,9 24,2 19,6 10 5 14 8 ESE 1016,2 32 57 0,0
17.07.2018 07:00:00 14,7 12,9 13,4 24,4 19,6 4 2 12 6 E 1016,2 23 40 0,0
17.07.2018 06:00:00 13,8 12,4 12,7 24,6 19,6 8 4 10 5 ESE 1015,7 20 0 0,0
17.07.2018 05:00:00 15,3 13,0 12,9 24,8 19,6 6 3 10 6 E 1015,1 30 0 0,0
17.07.2018 04:00:00 15,6 12,5 13,5 25,0 19,6 3 2 9 5 SSE 1014,7 42 0 0,0
17.07.2018 03:00:00 14,6 12,6 13,3 25,2 19,6 6 3 8 4 SE 1014,6 45 0 0,0
17.07.2018 02:00:00 15,8 12,7 14,8 25,3 19,6 3 1 6 4 SSW 1014,4 49 0 0,0
17.07.2018 01:00:00 17,3 13,2 15,3 25,5 19,6 5 3 8 4 E 1013,9 57 0 0,0
17.07.2018 00:00:00 17,7 13,4 14,3 25,6 19,6 4 2 6 4 ENE 1013,7 59 0 0,0
16.07.2018 23:00:00 18,4 12,8 15,6 25,6 19,6 0 0 16 9 N 1013,1 60 0 0,0
16.07.2018 22:00:00 22,3 12,5 17,2 25,5 19,6 3 2 9 5 SW 1011,9 7 1 0,0
16.07.2018 21:00:00 26,4 10,5 22,5 25,3 19,6 6 4 15 8 N 1010,6 60 35 0,0
16.07.2018 20:00:00 28,9 10,1 31,5 25,1 19,6 10 5 21 12 N 1009,5 56 58 0,0
16.07.2018 19:00:00 29,5 10,1 34,5 24,8 19,6 14 7 27 15 NNE 1009,1 53 58 0,0
16.07.2018 18:00:00 30,0 9,5 38,8 24,4 19,6 12 6 26 14 NNW 1009,0 48 60 0,0
16.07.2018 17:00:00 29,9 10,9 31,5 24,0 19,5 11 6 24 13 NNW 1009,2 41 49 0,0
16.07.2018 16:00:00 29,6 11,2 38,7 23,6 19,6 13 7 31 17 N 1009,8 59 60 0,0
16.07.2018 15:00:00 29,0 11,1 36,2 23,3 19,5 9 5 25 13 NNE 1010,2 55 49 0,0
16.07.2018 14:00:00 28,4 11,5 40,2 23,1 19,5 10 5 21 12 NW 1011,0 20 60 0,0
16.07.2018 13:00:00 27,1 11,9 38,1 22,9 19,5 8 4 24 13 S 1011,7 19 58 0,0
16.07.2018 12:00:00 25,9 12,7 36,1 22,9 19,5 9 5 19 10 S 1012,3 31 60 0,0
16.07.2018 11:00:00 24,5 12,8 34,2 23,0 19,5 5 3 15 8 NE 1012,5 52 60 0,0
16.07.2018 10:00:00 22,5 13,6 27,4 23,1 19,5 5 3 16 9 SE 1013,2 53 60 0,0
16.07.2018 09:00:00 19,5 13,9 21,7 23,3 19,5 9 5 14 7 E 1014,0 56 60 0,0
16.07.2018 08:00:00 16,3 13,0 12,9 23,6 19,6 5 3 11 6 E 1014,6 36 60 0,0
16.07.2018 07:00:00 13,2 11,9 11,0 23,8 19,5 9 5 12 6 ESE 1015,2 24 32 0,0
16.07.2018 06:00:00 13,2 11,8 12,0 24,0 19,5 5 3 8 4 E 1015,0 20 0 0,0
16.07.2018 05:00:00 12,9 12,0 10,9 24,2 19,5 8 4 13 7 ESE 1015,2 15 0 0,0
16.07.2018 04:00:00 15,0 12,9 12,8 24,4 19,5 3 2 9 5 E 1015,3 32 0 0,0
16.07.2018 03:00:00 14,4 12,9 11,1 24,6 19,5 3 2 10 6 ENE 1015,5 33 0 0,0
16.07.2018 02:00:00 17,0 13,5 14,7 24,7 19,5 0 0 8 5 N 1015,3 46 0 0,0
16.07.2018 01:00:00 16,5 13,2 13,9 24,8 19,5 7 4 11 6 SE 1015,3 59 0 0,0
16.07.2018 00:00:00 19,0 13,6 17,1 24,9 19,5 5 3 20 11 SE 1015,3 60 0 0,0
15.07.2018 23:00:00 19,5 13,2 17,3 25,0 19,5 11 6 31 17 SE 1015,0 60 0 0,0
15.07.2018 22:00:00 21,8 13,9 21,2 25,0 19,5 18 10 32 17 E 1014,7 60 0 0,0
15.07.2018 21:00:00 22,5 12,7 22,4 25,0 19,5 17 9 41 22 SSE 1014,3 60 0 0,0
15.07.2018 20:00:00 26,0 11,7 26,4 24,9 19,5 3 2 17 9 W 1013,0 60 0 0,0
15.07.2018 19:00:00 26,9 8,3 28,1 24,7 19,5 11 6 27 15 WNW 1012,9 60 0 0,0
15.07.2018 18:00:00 28,5 12,0 31,1 24,4 19,5 13 7 26 14 WNW 1011,9 45 1 0,0
15.07.2018 17:00:00 28,4 12,7 31,2 24,1 19,5 15 8 28 15 WNW 1012,0 50 0 0,0
15.07.2018 16:00:00 29,9 11,9 35,0 23,8 19,4 18 10 37 20 WNW 1011,8 20 26 0,0
15.07.2018 15:00:00 29,9 12,3 34,7 23,5 19,5 10 5 24 13 WNW 1012,3 44 25 0,0
15.07.2018 14:00:00 30,0 12,4 38,4 23,2 19,4 9 5 27 15 W 1012,7 41 53 0,0
15.07.2018 13:00:00 28,7 14,1 39,4 23,1 19,5 7 4 26 14 ESE 1013,5 13 60 0,0
15.07.2018 12:00:00 27,3 13,3 36,6 23,1 19,4 10 6 26 14 SSE 1014,3 20 60 0,0
15.07.2018 11:00:00 26,0 13,8 32,0 23,2 19,5 14 8 34 18 SE 1014,9 50 60 0,0
15.07.2018 10:00:00 25,1 14,2 29,2 23,3 19,4 13 7 29 15 SSE 1015,0 27 60 0,0
15.07.2018 09:00:00 22,8 14,6 24,7 23,4 19,4 12 6 21 12 SE 1015,3 58 60 0,0
15.07.2018 08:00:00 19,3 14,1 16,3 23,6 19,4 8 4 13 7 ESE 1015,6 34 60 0,0
15.07.2018 07:00:00 17,1 13,0 14,7 23,8 19,4 4 2 13 7 N 1015,6 31 28 0,0
15.07.2018 06:00:00 15,7 13,4 12,3 24,0 19,4 6 3 11 6 ENE 1015,7 28 0 0,0
15.07.2018 05:00:00 15,0 13,0 13,0 24,2 19,5 6 3 14 8 SSE 1016,0 27 0 0,0
15.07.2018 04:00:00 17,0 13,5 12,5 24,4 19,4 6 3 10 6 NE 1015,8 25 0 0,0
15.07.2018 03:00:00 16,0 14,2 12,9 24,5 19,4 3 1 5 3 WSW 1015,9 28 0 0,0
15.07.2018 02:00:00 18,1 13,8 16,7 24,6 19,4 2 1 9 5 W 1015,9 30 0 0,0
15.07.2018 01:00:00 19,8 14,6 17,8 24,7 19,4 4 2 8 4 ENE 1015,9 33 0 0,0
15.07.2018 00:00:00 20,7 15,9 18,5 24,7 19,3 0 0 5 3 N 1015,6 45 0 0,0
14.07.2018 23:00:00 23,2 15,0 20,1 24,7 19,4 4 2 12 7 ENE 1015,1 53 0 0,0
14.07.2018 22:00:00 22,2 15,3 20,6 24,6 19,4 7 4 14 8 ESE 1015,3 56 0 0,0
14.07.2018 21:00:00 24,3 15,0 23,5 24,4 19,4 3 2 10 6 SW 1014,6 60 0 0,0
14.07.2018 20:00:00 28,4 11,5 27,9 24,2 19,4 7 4 17 9 N 1014,0 60 37 0,0
14.07.2018 19:00:00 30,2 10,7 34,1 24,0 19,4 9 5 16 9 N 1014,1 47 48 0,0
14.07.2018 18:00:00 29,6 9,7 33,7 23,7 19,4 11 6 21 11 NNE 1014,5 38 42 0,0
14.07.2018 17:00:00 30,0 10,0 37,1 23,3 19,4 8 5 21 12 N 1014,8 20 44 0,0
14.07.2018 16:00:00 29,9 10,4 34,1 23,0 19,4 8 5 19 10 SW 1015,3 45 46 0,0
14.07.2018 15:00:00 28,7 10,4 34,4 22,7 19,3 9 5 29 16 SE 1015,9 20 16 0,0
14.07.2018 14:00:00 29,4 9,0 35,3 22,5 19,4 10 5 20 11 SE 1016,1 54 47 0,0
14.07.2018 13:00:00 29,3 10,9 37,6 22,4 19,3 8 4 18 10 N 1016,5 18 51 0,0
14.07.2018 12:00:00 27,8 12,2 34,3 22,4 19,4 8 5 17 9 N 1017,1 44 44 0,0
14.07.2018 11:00:00 26,7 13,8 34,0 22,5 19,4 6 3 16 9 S 1017,4 52 60 0,0
14.07.2018 10:00:00 24,4 14,5 27,7 22,6 19,4 10 5 20 11 ESE 1017,8 41 60 0,0
14.07.2018 09:00:00 21,2 14,1 21,9 22,7 19,4 11 6 17 9 ESE 1018,5 53 60 0,0
14.07.2018 08:00:00 17,2 12,7 13,8 22,9 19,4 8 4 13 7 E 1018,8 49 60 0,0
14.07.2018 07:00:00 14,2 11,7 12,4 23,1 19,4 0 0 7 4 N 1019,1 41 35 0,0
14.07.2018 06:00:00 13,3 11,4 12,0 23,3 19,3 5 3 8 4 ENE 1019,0 42 0 0,0
14.07.2018 05:00:00 13,7 11,4 11,1 23,5 19,4 3 1 7 4 NNE 1019,1 45 0 0,0
14.07.2018 04:00:00 13,0 11,2 10,9 23,8 19,4 4 2 7 4 E 1019,0 28 0 0,0
14.07.2018 03:00:00 13,6 11,6 11,1 23,9 19,4 3 2 10 6 SE 1019,1 30 0 0,0
14.07.2018 02:00:00 16,0 12,0 13,6 24,1 19,4 6 4 12 7 NW 1018,9 33 0 0,0
14.07.2018 01:00:00 15,9 13,2 13,2 24,2 19,4 4 2 9 5 E 1018,8 38 0 0,0

tt = Température de l'air
td = dewpoint
tt 5cm = Température de l'air 5cm
tt -20cm = Température de l'air -20cm
tt -100cm = Température de l'air -100cm
ff = Vitesse du vent
fx = gusts
dd = Direction du vent
ppp = reduced air pressure
vv = visibility
sd = Ensoleillement
rr = Quantités de précipitations

stations d'obs. à proximité